This is the latest recevied weather packets stored in our database for station/object WK7G. If no packets are shown the sender has not sent any weather packets the latest 10 day(s).
| Time | Temp. | Humidity | Pressure | Rain* | Wind** | Luminosity | Snow |
|---|---|---|---|---|---|---|---|
| 1777595511 | 11.67° C | 30% | 1012.2 hPa | 0 mm | - | 213 W/m² | - |
| 1777595208 | 11.67° C | 31% | 1011.9 hPa | 0 mm | - | 247 W/m² | - |
| 1777594903 | 11.67° C | 31% | 1012.2 hPa | 0 mm | - | 267 W/m² | - |
| 1777594600 | 12.22° C | 30% | 1012.1 hPa | 0 mm | - | 252 W/m² | - |
| 1777594297 | 12.22° C | 31% | 1012.1 hPa | 0 mm | - | 285 W/m² | - |
| 1777593993 | 12.22° C | 29% | 1012.1 hPa | 0 mm | - | 258 W/m² | - |
| 1777593689 | 11.67° C | 32% | 1012.1 hPa | 0 mm | - | 288 W/m² | - |
| 1777593386 | 11.67° C | 31% | 1012.1 hPa | 0 mm | - | 296 W/m² | - |
| 1777593084 | 12.22° C | 34% | 1011.9 hPa | 0 mm | - | 257 W/m² | - |
| 1777592783 | 12.22° C | 32% | 1012.1 hPa | 0 mm | - | 399 W/m² | - |
| 1777592480 | 12.78° C | 33% | 1012.2 hPa | 0 mm | - | 425 W/m² | - |
| 1777592175 | 12.78° C | 32% | 1012.1 hPa | 0 mm | - | 437 W/m² | - |
| 1777591872 | 12.22° C | 31% | 1012.3 hPa | 0 mm | - | 449 W/m² | - |
| 1777591568 | 12.22° C | 34% | 1012.1 hPa | 0 mm | - | 428 W/m² | - |
| 1777591264 | 12.78° C | 34% | 1012.3 hPa | 0 mm | - | 460 W/m² | - |
| 1777590960 | 12.22° C | 32% | 1012.2 hPa | 0 mm | - | 419 W/m² | - |
| 1777590656 | 12.22° C | 30% | 1012.1 hPa | 0 mm | - | 479 W/m² | - |
| 1777590352 | 12.78° C | 35% | 1012.1 hPa | 0 mm | - | 475 W/m² | - |
| 1777590049 | 11.67° C | 32% | 1012.2 hPa | 0 mm | - | 501 W/m² | - |
| 1777589746 | 12.78° C | 32% | 1012.2 hPa | 0 mm | - | 488 W/m² | - |
| 1777589444 | 12.78° C | 36% | 1012.2 hPa | 0 mm | - | 520 W/m² | - |
| 1777589140 | 12.78° C | 36% | 1012.4 hPa | 0 mm | - | 532 W/m² | - |
| 1777588836 | 11.67° C | 35% | 1012.3 hPa | 0 mm | - | 552 W/m² | - |
| 1777588532 | 12.22° C | 36% | 1012.3 hPa | 0 mm | - | 545 W/m² | - |
| 1777588228 | 12.78° C | 33% | 1012.7 hPa | 0 mm | - | 547 W/m² | - |
* Rain latest hour (hover to see other rain measurements)
** Current wind speed in m/s (hover to see current wind gust speed)